Location: Moscow Pond
(43.6842°N, 73.2366°W)
Time: 07:54:44
(UTC+00:00)

ACS3 Solar Sail - Pass Details

Date: 08 November 2025
Orbit: 887 x 1001 km, 97.3° (Epoch: 13 December)

Event Time Altitude Azimuth Distance (km) Brightness Sun altitude
Rises 08:57:00 0° 6° (N) 3,524 4.9 -29.4°
Reaches altitude 10° 08:59:26 10° 2° (N) 2,590 4.1 -28.9°
Enters shadow 09:01:48 25° 351° (N) 1,760 3.1 -28.5°
